TimeEDT,TemperatureF,Dew PointF,Humidity,Sea Level PressureIn,VisibilityMPH,Wind Direction,Wind SpeedMPH,Gust SpeedMPH,PrecipitationIn,Events,Conditions,WindDirDegrees,DateUTC
12:51 AM,69.1,64.0,84,30.06,9.0,Calm,Calm,-,N/A,,Clear,0,2013-07-03 04:51:00
1:51 AM,69.1,64.0,84,30.06,9.0,Calm,Calm,-,N/A,,Clear,0,2013-07-03 05:51:00
2:51 AM,70.0,66.0,87,30.05,9.0,Calm,Calm,-,N/A,,Clear,0,2013-07-03 06:51:00
3:51 AM,70.0,66.0,87,30.06,9.0,South,3.5,-,N/A,,Clear,170,2013-07-03 07:51:00
4:51 AM,70.0,66.0,87,30.06,9.0,Calm,Calm,-,N/A,,Partly Cloudy,0,2013-07-03 08:51:00
5:51 AM,70.0,66.9,90,30.08,10.0,South,5.8,-,N/A,,Mostly Cloudy,170,2013-07-03 09:51:00
6:51 AM,71.1,66.9,87,30.09,10.0,Calm,Calm,-,N/A,,Mostly Cloudy,0,2013-07-03 10:51:00
7:51 AM,73.0,68.0,84,30.12,10.0,South,8.1,-,N/A,,Mostly Cloudy,170,2013-07-03 11:51:00
8:51 AM,75.0,68.0,79,30.13,10.0,South,6.9,-,N/A,,Overcast,170,2013-07-03 12:51:00
9:51 AM,80.1,69.1,69,30.13,10.0,SSW,6.9,-,N/A,,Mostly Cloudy,200,2013-07-03 13:51:00
10:51 AM,82.0,69.1,65,30.12,9.0,South,5.8,-,N/A,,Clear,180,2013-07-03 14:51:00
11:51 AM,79.0,69.1,72,30.12,10.0,Variable,3.5,-,N/A,,Scattered Clouds,0,2013-07-03 15:51:00
12:51 PM,84.9,68.0,57,30.11,10.0,South,12.7,16.1,N/A,,Scattered Clouds,190,2013-07-03 16:51:00
1:51 PM,84.9,69.1,59,30.11,10.0,Variable,5.8,-,N/A,,Scattered Clouds,0,2013-07-03 17:51:00
2:51 PM,81.0,70.0,69,30.10,10.0,North,9.2,-,N/A,,Scattered Clouds,350,2013-07-03 18:51:00
3:51 PM,78.1,69.1,74,30.12,10.0,North,5.8,-,N/A,,Mostly Cloudy,360,2013-07-03 19:51:00
4:51 PM,82.0,70.0,67,30.10,10.0,NE,5.8,-,N/A,,Clear,50,2013-07-03 20:51:00
5:51 PM,80.1,69.1,69,30.09,10.0,NNE,5.8,-,N/A,,Clear,30,2013-07-03 21:51:00
6:51 PM,80.1,68.0,67,30.09,10.0,NNE,3.5,-,N/A,,Scattered Clouds,30,2013-07-03 22:51:00
7:51 PM,75.0,70.0,84,30.11,10.0,Calm,Calm,-,0.02,Rain,Light Rain,0,2013-07-03 23:51:00
8:51 PM,75.0,71.1,87,30.11,7.0,East,4.6,-,0.00,,Clear,100,2013-07-04 00:51:00
9:51 PM,75.0,69.1,82,30.13,7.0,West,6.9,-,0.01,Rain,Light Rain,270,2013-07-04 01:51:00
10:51 PM,72.0,66.0,81,30.15,10.0,Calm,Calm,-,0.15,Rain,Light Rain,0,2013-07-04 02:51:00
11:14 PM,71.6,66.2,83,30.15,2.5,SE,3.5,-,0.08,Rain,Light Rain,130,2013-07-04 03:14:00
11:21 PM,71.6,66.2,83,30.15,10.0,Calm,Calm,-,0.08,Rain,Light Rain,0,2013-07-04 03:21:00
11:51 PM,70.0,66.9,90,30.13,10.0,South,4.6,-,0.08,,Partly Cloudy,170,2013-07-04 03:51:00